• In Uzbekistan
  • List of Countries
  • For 7 days
  • Water Temperature
  • Satellite Maps
  • Weather Map
  • Weather Widgets
  • user-avatar
    Login

    Hourly Weather San Cristóbal

    Today, 26 June, Wednesday

    Time Temperature Precipitation Wind Pressure Humidity
    00:00 +20°C° 0 mm 1 mps 673 mmHg 77%
    01:00 +20°C° 0 mm 1 mps 673 mmHg 76%
    02:00 +20°C° 0 mm 1 mps 672 mmHg 77%
    03:00 +20°C° 0 mm 1 mps 672 mmHg 79%
    04:00 +20°C° 0 mm 1 mps 672 mmHg 80%
    05:00 +21°C° 0 mm 1 mps 672 mmHg 79%
    06:00 +21°C° 0 mm 1 mps 673 mmHg 77%
    07:00 +22°C° 0 mm 1 mps 673 mmHg 76%
    08:00 +24°C° 0.1 mm 2 mps 674 mmHg 71%
    09:00 +25°C° 0.1 mm 2 mps 674 mmHg 67%
    10:00 +27°C° 0.1 mm 3 mps 674 mmHg 62%
    11:00 +27°C° 0.2 mm 3 mps 674 mmHg 61%
    12:00 +28°C° 0.2 mm 3 mps 673 mmHg 59%
    13:00 +28°C° 0.2 mm 3 mps 673 mmHg 58%
    14:00 +28°C° 0.2 mm 3 mps 672 mmHg 59%
    15:00 +27°C° 0.2 mm 3 mps 672 mmHg 59%
    16:00 +27°C° 0.2 mm 3 mps 671 mmHg 59%
    17:00 +25°C° 0 mm 2 mps 671 mmHg 68%
    18:00 +23°C° 0 mm 2 mps 671 mmHg 76%
    19:00 +21°C° 0 mm 1 mps 671 mmHg 85%
    20:00 +20°C° 0 mm 2 mps 671 mmHg 82%
    21:00 +20°C° 0 mm 2 mps 672 mmHg 79%
    22:00 +19°C° 0 mm 2 mps 672 mmHg 76%
    23:00 +19°C° 0 mm 2 mps 672 mmHg 75%

    Tomorrow, 27 June, Thursday

    Time Temperature Precipitation Wind Pressure Humidity
    00:00 +19°C° 0 mm 2 mps 672 mmHg 73%
    01:00 +19°C° 0 mm 2 mps 671 mmHg 71%
    02:00 +19°C° 0 mm 2 mps 671 mmHg 71%
    03:00 +19°C° 0 mm 2 mps 671 mmHg 72%
    04:00 +18°C° 0 mm 2 mps 671 mmHg 72%
    05:00 +19°C° 0 mm 2 mps 672 mmHg 69%
    06:00 +20°C° 0 mm 2 mps 672 mmHg 67%
    07:00 +21°C° 0 mm 2 mps 673 mmHg 65%
    08:00 +24°C° 0 mm 2 mps 673 mmHg 58%
    09:00 +26°C° 0 mm 3 mps 673 mmHg 51%
    10:00 +28°C° 0 mm 3 mps 674 mmHg 45%
    11:00 +29°C° 0 mm 3 mps 673 mmHg 43%
    12:00 +29°C° 0 mm 3 mps 673 mmHg 42%
    13:00 +30°C° 0 mm 3 mps 672 mmHg 41%
    14:00 +29°C° 0 mm 3 mps 672 mmHg 43%
    15:00 +29°C° 0 mm 3 mps 671 mmHg 45%
    16:00 +28°C° 0 mm 2 mps 670 mmHg 47%
    17:00 +26°C° 0 mm 2 mps 670 mmHg 59%
    18:00 +23°C° 0 mm 1 mps 670 mmHg 71%
    19:00 +21°C° 0 mm 1 mps 670 mmHg 83%
    20:00 +20°C° 0 mm 1 mps 671 mmHg 83%
    21:00 +20°C° 0 mm 1 mps 671 mmHg 83%
    22:00 +20°C° 0 mm 1 mps 672 mmHg 82%
    23:00 +19°C° 0 mm 1 mps 671 mmHg 83%

    Day after tomorrow, 28 June, Friday

    Time Temperature Precipitation Wind Pressure Humidity
    00:00 +19°C° 0 mm 1 mps 671 mmHg 83%
    01:00 +19°C° 0 mm 1 mps 671 mmHg 83%
    02:00 +19°C° 0 mm 1 mps 671 mmHg 84%
    03:00 +19°C° 0 mm 1 mps 671 mmHg 85%
    04:00 +18°C° 0 mm 2 mps 671 mmHg 85%
    05:00 +19°C° 0 mm 2 mps 671 mmHg 83%
    06:00 +20°C° 0 mm 2 mps 672 mmHg 80%
    07:00 +20°C° 0 mm 2 mps 672 mmHg 78%
    08:00 +23°C° 0 mm 2 mps 673 mmHg 68%
    09:00 +25°C° 0 mm 3 mps 673 mmHg 59%
    10:00 +27°C° 0 mm 3 mps 674 mmHg 50%
    11:00 +28°C° 0.1 mm 3 mps 673 mmHg 50%
    12:00 +29°C° 0.1 mm 3 mps 673 mmHg 50%
    13:00 +29°C° 0.1 mm 3 mps 672 mmHg 50%
    14:00 +29°C° 0.2 mm 3 mps 672 mmHg 54%
    15:00 +28°C° 0.2 mm 2 mps 671 mmHg 58%
    16:00 +27°C° 0.2 mm 2 mps 671 mmHg 62%
    17:00 +25°C° 0.2 mm 2 mps 671 mmHg 71%
    18:00 +23°C° 0.2 mm 1 mps 671 mmHg 80%
    19:00 +21°C° 0.2 mm 1 mps 671 mmHg 89%
    20:00 +21°C° 0.2 mm 1 mps 671 mmHg 90%
    21:00 +21°C° 0.2 mm 1 mps 672 mmHg 90%
    22:00 +20°C° 0.2 mm 1 mps 672 mmHg 91%
    23:00 +20°C° 0.7 mm 1 mps 672 mmHg 91%

    29 June, Saturday

    Time Temperature Precipitation Wind Pressure Humidity
    00:00 +21°C° 0.7 mm 1 mps 672 mmHg 92%
    01:00 +21°C° 0.7 mm 1 mps 671 mmHg 93%
    02:00 +20°C° 0.8 mm 1 mps 671 mmHg 93%
    03:00 +19°C° 0.8 mm 2 mps 671 mmHg 93%
    04:00 +19°C° 0.8 mm 2 mps 671 mmHg 94%
    05:00 +20°C° 0.5 mm 2 mps 671 mmHg 93%
    06:00 +20°C° 0.5 mm 2 mps 672 mmHg 92%
    07:00 +20°C° 0.5 mm 2 mps 672 mmHg 91%
    08:00 +21°C° 0.5 mm 2 mps 673 mmHg 89%
    09:00 +21°C° 0.5 mm 2 mps 673 mmHg 87%
    10:00 +23°C° 0.5 mm 2 mps 673 mmHg 86%
    11:00 +21°C° 1.1 mm 2 mps 673 mmHg 88%
    12:00 +20°C° 1.1 mm 2 mps 672 mmHg 90%
    13:00 +20°C° 1.1 mm 2 mps 671 mmHg 92%
    14:00 +21°C° 0.3 mm 2 mps 671 mmHg 89%
    15:00 +22°C° 0.3 mm 1 mps 671 mmHg 85%
    16:00 +23°C° 0.3 mm 1 mps 670 mmHg 81%
    17:00 +22°C° 0 mm 1 mps 670 mmHg 82%
    18:00 +21°C° 0 mm 1 mps 670 mmHg 82%
    19:00 +21°C° 0 mm 1 mps 671 mmHg 83%
    20:00 +21°C° 0 mm 1 mps 671 mmHg 81%
    21:00 +21°C° 0 mm 1 mps 672 mmHg 79%
    22:00 +21°C° 0 mm 1 mps 672 mmHg 78%
    23:00 +21°C° 0 mm 1 mps 672 mmHg 76%

    30 June, Sunday

    Time Temperature Precipitation Wind Pressure Humidity
    00:00 +21°C° 0 mm 1 mps 672 mmHg 75%
    01:00 +21°C° 0 mm 1 mps 672 mmHg 74%
    02:00 +21°C° 0.2 mm 1 mps 672 mmHg 77%
    03:00 +19°C° 0.2 mm 2 mps 671 mmHg 81%
    04:00 +19°C° 0.2 mm 2 mps 671 mmHg 84%
    05:00 +19°C° 0.6 mm 2 mps 672 mmHg 86%
    06:00 +19°C° 0.6 mm 2 mps 672 mmHg 88%
    07:00 +20°C° 0.6 mm 2 mps 672 mmHg 90%
    08:00 +20°C° 0.2 mm 2 mps 673 mmHg 88%
    09:00 +21°C° 0.2 mm 2 mps 673 mmHg 85%
    10:00 +23°C° 0.2 mm 2 mps 673 mmHg 83%
    11:00 +24°C° 0.2 mm 2 mps 673 mmHg 78%
    12:00 +25°C° 0.2 mm 2 mps 673 mmHg 73%
    13:00 +26°C° 0.2 mm 2 mps 672 mmHg 68%
    14:00 +26°C° 0 mm 2 mps 672 mmHg 65%
    15:00 +26°C° 0 mm 2 mps 671 mmHg 63%
    16:00 +27°C° 0 mm 2 mps 671 mmHg 61%
    17:00 +25°C° 0.1 mm 2 mps 671 mmHg 69%
    18:00 +23°C° 0.1 mm 1 mps 671 mmHg 78%
    19:00 +21°C° 0.1 mm 1 mps 671 mmHg 86%
    20:00 +21°C° 0 mm 1 mps 671 mmHg 84%
    21:00 +21°C° 0 mm 1 mps 672 mmHg 81%
    22:00 +21°C° 0 mm 1 mps 672 mmHg 78%
    23:00 +21°C° 0 mm 1 mps 672 mmHg 77%

    1 July, Monday

    Time Temperature Precipitation Wind Pressure Humidity
    00:00 +21°C° 0 mm 1 mps 672 mmHg 75%
    01:00 +22°C° 0 mm 1 mps 672 mmHg 74%
    02:00 +21°C° 0.2 mm 1 mps 671 mmHg 78%
    03:00 +21°C° 0.2 mm 1 mps 671 mmHg 83%
    04:00 +20°C° 0.2 mm 1 mps 671 mmHg 87%
    05:00 +20°C° 0.1 mm 1 mps 672 mmHg 87%
    06:00 +21°C° 0.1 mm 1 mps 672 mmHg 87%
    07:00 +21°C° 0.1 mm 1 mps 672 mmHg 87%
    08:00 +23°C° 0.1 mm 1 mps 673 mmHg 80%
    09:00 +24°C° 0.1 mm 1 mps 674 mmHg 73%
    10:00 +26°C° 0.1 mm 2 mps 674 mmHg 66%
    11:00 +24°C° 3.1 mm 2 mps 674 mmHg 76%
    12:00 +23°C° 3.1 mm 2 mps 673 mmHg 85%
    13:00 +20°C° 3.1 mm 2 mps 672 mmHg 95%
    14:00 +20°C° 1.1 mm 2 mps 672 mmHg 94%
    15:00 +20°C° 1.1 mm 2 mps 672 mmHg 93%
    16:00 +20°C° 1.1 mm 2 mps 672 mmHg 92%
    17:00 +20°C° 0.1 mm 2 mps 672 mmHg 92%
    18:00 +19°C° 0.1 mm 2 mps 672 mmHg 92%
    19:00 +19°C° 0.1 mm 2 mps 672 mmHg 92%
    20:00 +20°C° 0 mm 1 mps 672 mmHg 92%
    21:00 +20°C° 0 mm 1 mps 672 mmHg 91%
    22:00 +20°C° 0 mm 1 mps 672 mmHg 91%
    23:00 +20°C° 0 mm 1 mps 672 mmHg 90%
    Show more